contact:dominique.lefevre@mio.osupytheas.fr, maurice.libes@osupytheas.fr, didier.mallarino@osupytheas.fr
Project:EMSO http://www.emso-fr.org/EMSO-France
Depth: 2436.0 m
Title:EMSO Ligure Ouest : Data MII capteur AQUADOPP
Date,Latitude,Longitude,X_East,Y_North,Z_Up,Amplitude_X,Amplitude_Y,Amplitude_Z,Batterie,SoundSpeed,Heading,Pitch,Roll,Pressure,TIS,Speed,Direction
, degrees North, degrees East, m.s-1, m.s-1,m.s-1, 1, 1, 1, Volt, m.s-1, degree, degree, degree, dbar, degree_C, m.s-1, degree
2020-04-03T00:04:03,42.805,6.029,0.0,0.028,-0.021,106.0,114.0,104.0,13.4,1505.3,323.9,-0.7,1.8,2470.376,13.31,0.028,0.0
2020-04-03T00:07:03,42.805,6.029,0.001,0.043,-0.011,105.0,116.0,102.0,13.4,1505.3,325.2,-0.7,1.8,2470.393,13.32,0.043,1.3
2020-04-03T00:10:03,42.805,6.029,0.013,0.029,-0.059,104.0,116.0,103.0,13.4,1505.3,325.4,-0.7,1.8,2470.378,13.32,0.031,24.1
2020-04-03T00:13:03,42.805,6.029,0.01,0.035,-0.024,105.0,115.0,103.0,13.4,1505.3,326.4,-0.7,1.9,2470.377,13.33,0.036,15.9
2020-04-03T00:16:03,42.805,6.029,-0.027,0.05,-0.016,106.0,112.0,102.0,13.4,1505.3,326.4,-0.7,1.8,2470.395,13.33,0.056,331.6
2020-04-03T00:19:03,42.805,6.029,-0.006,0.03,-0.015,106.0,115.0,104.0,13.3,1505.3,326.9,-0.7,1.8,2470.35,13.33,0.03,348.7
2020-04-03T00:22:03,42.805,6.029,0.012,0.038,-0.028,105.0,115.0,103.0,13.4,1505.3,324.6,-0.7,1.8,2470.367,13.33,0.039,17.5
2020-04-03T00:25:03,42.805,6.029,0.002,0.035,-0.013,106.0,114.0,103.0,13.4,1505.3,322.7,-0.7,1.8,2470.35,13.33,0.035,3.3
2020-04-03T00:28:03,42.805,6.029,0.003,0.045,-0.032,105.0,115.0,102.0,13.4,1505.3,323.5,-0.7,1.8,2470.374,13.33,0.045,3.8
2020-04-03T00:31:03,42.805,6.029,0.012,0.041,-0.027,106.0,115.0,102.0,13.4,1505.3,326.4,-0.7,1.8,2470.367,13.33,0.042,16.3
2020-04-03T00:34:03,42.805,6.029,-0.007,0.046,-0.02,106.0,115.0,103.0,13.4,1505.3,326.7,-0.7,1.8,2470.365,13.33,0.046,351.3
2020-04-03T00:37:03,42.805,6.029,-0.016,0.032,-0.031,108.0,114.0,103.0,13.4,1505.3,324.4,-0.7,1.9,2470.382,13.33,0.035,333.4
2020-04-03T00:40:03,42.805,6.029,-0.005,0.051,-0.002,108.0,115.0,103.0,13.3,1505.3,326.5,-0.7,1.8,2470.355,13.33,0.051,354.4
2020-04-03T00:43:03,42.805,6.029,0.008,0.037,-0.007,106.0,114.0,102.0,13.4,1505.3,326.6,-0.7,1.8,2470.378,13.33,0.037,12.2
2020-04-03T00:46:03,42.805,6.029,-0.002,0.021,-0.011,106.0,114.0,103.0,13.3,1505.3,323.3,-0.7,1.8,2470.384,13.33,0.021,354.6
2020-04-03T00:49:03,42.805,6.029,0.017,0.051,-0.011,107.0,113.0,102.0,13.4,1505.3,327.4,-0.7,1.8,2470.386,13.33,0.053,18.4
2020-04-03T00:52:03,42.805,6.029,-0.002,0.047,-0.032,106.0,116.0,102.0,13.4,1505.3,326.7,-0.7,1.8,2470.405,13.33,0.047,357.6
2020-04-03T00:55:03,42.805,6.029,-0.007,0.04,-0.044,107.0,115.0,102.0,13.4,1505.3,325.8,-0.7,1.8,2470.366,13.33,0.04,350.1
2020-04-03T00:58:03,42.805,6.029,-0.013,0.034,-0.046,106.0,115.0,104.0,13.3,1505.3,324.1,-0.7,1.8,2470.384,13.33,0.036,339.1
2020-04-03T01:04:03,42.805,6.029,0.0,0.023,-0.036,108.0,115.0,104.0,13.3,1505.3,326.9,-0.8,1.8,2470.435,13.31,0.023,0.0
2020-04-03T01:07:03,42.805,6.029,-0.002,0.044,-0.041,107.0,115.0,103.0,13.3,1505.3,327.4,-0.7,1.8,2470.405,13.32,0.044,357.4
2020-04-03T01:10:03,42.805,6.029,-0.018,0.061,-0.03,106.0,116.0,103.0,13.3,1505.3,326.4,-0.7,1.8,2470.415,13.32,0.063,343.6
2020-04-03T01:13:03,42.805,6.029,-0.014,0.037,-0.015,106.0,115.0,102.0,13.4,1505.3,325.7,-0.7,1.8,2470.404,13.33,0.039,339.3
2020-04-03T01:16:03,42.805,6.029,-0.015,0.05,-0.044,107.0,115.0,102.0,13.3,1505.3,324.9,-0.7,1.8,2470.406,13.33,0.052,343.3
2020-04-03T01:19:03,42.805,6.029,0.001,0.049,-0.016,106.0,115.0,103.0,13.3,1505.3,326.4,-0.7,1.8,2470.396,13.33,0.049,1.2
2020-04-03T01:22:03,42.805,6.029,-0.018,0.041,-0.005,106.0,116.0,102.0,13.4,1505.3,326.9,-0.7,1.9,2470.435,13.33,0.044,336.3
2020-04-03T01:25:03,42.805,6.029,-0.017,0.038,0.008,106.0,115.0,103.0,13.3,1505.3,324.7,-0.7,1.8,2470.394,13.33,0.041,335.9
2020-04-03T01:28:03,42.805,6.029,0.0,0.046,-0.011,104.0,115.0,104.0,13.4,1505.3,327.0,-0.7,1.8,2470.384,13.33,0.046,0.0
2020-04-03T01:31:03,42.805,6.029,-0.024,0.056,-0.052,105.0,114.0,102.0,13.4,1505.3,327.6,-0.7,1.8,2470.371,13.33,0.06,336.8
2020-04-03T01:34:03,42.805,6.029,-0.002,0.048,-0.009,106.0,114.0,102.0,13.3,1505.3,328.3,-0.7,1.8,2470.384,13.33,0.048,357.6
2020-04-03T01:37:03,42.805,6.029,0.012,0.029,-0.001,106.0,115.0,103.0,13.3,1505.3,323.5,-0.7,1.8,2470.36,13.33,0.031,22.5
2020-04-03T01:40:03,42.805,6.029,-0.012,0.044,0.008,105.0,115.0,102.0,13.4,1505.3,324.5,-0.7,1.8,2470.397,13.33,0.045,344.7
2020-04-03T01:43:03,42.805,6.029,0.005,0.036,0.0,105.0,115.0,102.0,13.3,1505.3,326.8,-0.7,1.8,2470.382,13.33,0.036,7.9
2020-04-03T01:46:03,42.805,6.029,-0.019,0.023,-0.032,105.0,117.0,102.0,13.4,1505.3,327.2,-0.7,1.8,2470.396,13.33,0.029,320.4
2020-04-03T01:49:03,42.805,6.029,0.008,0.037,-0.031,105.0,116.0,103.0,13.4,1505.3,327.0,-0.7,1.8,2470.361,13.33,0.037,12.2
2020-04-03T01:52:03,42.805,6.029,-0.009,0.039,-0.011,106.0,114.0,103.0,13.3,1505.3,326.4,-0.7,1.8,2470.389,13.33,0.04,347.0
2020-04-03T01:55:03,42.805,6.029,-0.025,0.04,-0.028,105.0,115.0,102.0,13.3,1505.3,323.5,-0.7,1.8,2470.434,13.33,0.047,328.0
2020-04-03T01:58:03,42.805,6.029,-0.007,0.042,-0.038,106.0,115.0,103.0,13.3,1505.3,325.1,-0.7,1.8,2470.397,13.33,0.042,350.5
2020-04-03T02:04:03,42.805,6.029,0.0,0.047,-0.048,106.0,116.0,105.0,13.3,1505.3,325.3,-0.8,1.8,2470.421,13.31,0.047,0.0
2020-04-03T02:07:03,42.805,6.029,0.0,0.047,0.005,105.0,115.0,104.0,13.4,1505.3,323.8,-0.7,1.8,2470.441,13.32,0.047,0.0
2020-04-03T02:10:03,42.805,6.029,-0.011,0.049,-0.032,106.0,116.0,102.0,13.4,1505.3,324.9,-0.7,1.8,2470.436,13.32,0.05,347.3
2020-04-03T02:13:03,42.805,6.029,-0.035,0.052,-0.005,106.0,115.0,102.0,13.4,1505.3,326.5,-0.7,1.9,2470.471,13.32,0.062,326.1
2020-04-03T02:16:03,42.805,6.029,-0.005,0.066,-0.019,105.0,115.0,102.0,13.4,1505.3,327.6,-0.7,1.8,2470.429,13.32,0.066,355.7
2020-04-03T02:19:03,42.805,6.029,-0.001,0.05,-0.012,106.0,116.0,103.0,13.3,1505.3,326.9,-0.7,1.8,2470.414,13.33,0.05,358.9
2020-04-03T02:22:03,42.805,6.029,-0.021,0.023,-0.045,107.0,115.0,102.0,13.4,1505.3,328.4,-0.7,1.8,2470.456,13.33,0.031,317.6
2020-04-03T02:25:03,42.805,6.029,0.003,0.033,-0.024,105.0,114.0,103.0,13.4,1505.3,326.9,-0.7,1.8,2470.406,13.33,0.033,5.2
2020-04-03T02:28:03,42.805,6.029,0.001,0.039,-0.019,105.0,114.0,103.0,13.4,1505.3,326.3,-0.7,1.8,2470.406,13.33,0.039,1.5
2020-04-03T02:31:03,42.805,6.029,-0.012,0.038,-0.057,105.0,116.0,102.0,13.4,1505.3,324.6,-0.7,1.8,2470.464,13.33,0.039,342.5
2020-04-03T02:34:03,42.805,6.029,0.005,0.04,-0.006,106.0,116.0,102.0,13.4,1505.3,326.4,-0.7,1.8,2470.382,13.33,0.04,7.1
2020-04-03T02:37:03,42.805,6.029,-0.014,0.043,-0.025,106.0,115.0,102.0,13.4,1505.3,325.1,-0.7,1.8,2470.379,13.33,0.045,342.0
2020-04-03T02:40:03,42.805,6.029,0.006,0.052,-0.036,106.0,115.0,103.0,13.4,1505.3,326.4,-0.7,1.8,2470.4,13.33,0.052,6.6
2020-04-03T02:43:03,42.805,6.029,-0.024,0.068,-0.023,105.0,115.0,102.0,13.3,1505.3,325.1,-0.7,1.8,2470.446,13.33,0.072,340.6
2020-04-03T02:46:03,42.805,6.029,0.003,0.039,-0.023,105.0,116.0,103.0,13.4,1505.3,326.8,-0.7,1.8,2470.423,13.33,0.039,4.4
2020-04-03T02:49:03,42.805,6.029,-0.012,0.048,-0.009,106.0,116.0,102.0,13.4,1505.3,325.4,-0.7,1.8,2470.446,13.33,0.049,346.0
2020-04-03T02:52:03,42.805,6.029,-0.003,0.057,-0.001,106.0,115.0,102.0,13.4,1505.3,323.4,-0.8,1.9,2470.419,13.33,0.057,357.0
2020-04-03T02:55:03,42.805,6.029,-0.002,0.037,-0.012,106.0,114.0,103.0,13.3,1505.3,323.9,-0.7,1.9,2470.395,13.33,0.037,356.9
2020-04-03T02:58:03,42.805,6.029,-0.022,0.07,-0.036,106.0,114.0,102.0,13.4,1505.3,323.5,-0.7,1.8,2470.427,13.33,0.073,342.6
2020-04-03T03:04:03,42.805,6.029,-0.008,0.056,-0.011,106.0,115.0,102.0,13.4,1505.3,324.3,-0.8,1.8,2470.447,13.31,0.056,351.9
2020-04-03T03:07:03,42.805,6.029,0.001,0.074,-0.038,107.0,114.0,102.0,13.4,1505.3,326.8,-0.7,1.8,2470.403,13.31,0.074,0.8
2020-04-03T03:10:03,42.805,6.029,-0.005,0.037,-0.054,107.0,114.0,102.0,13.4,1505.3,327.0,-0.7,1.8,2470.47,13.32,0.037,352.3
2020-04-03T03:13:03,42.805,6.029,-0.007,0.04,-0.018,105.0,115.0,102.0,13.4,1505.3,324.0,-0.7,1.8,2470.464,13.32,0.04,350.1
2020-04-03T03:16:03,42.805,6.029,-0.002,0.032,-0.039,106.0,115.0,103.0,13.3,1505.3,324.4,-0.7,1.8,2470.462,13.32,0.032,356.4
2020-04-03T03:19:03,42.805,6.029,-0.004,0.033,0.004,105.0,114.0,104.0,13.4,1505.3,326.6,-0.7,1.8,2470.39,13.33,0.033,353.1
2020-04-03T03:22:03,42.805,6.029,-0.002,0.043,-0.013,105.0,115.0,104.0,13.4,1505.3,325.8,-0.7,1.9,2470.45,13.33,0.043,357.3
2020-04-03T03:25:03,42.805,6.029,-0.008,0.054,0.002,105.0,115.0,102.0,13.3,1505.3,327.3,-0.7,1.8,2470.421,13.33,0.054,351.6
2020-04-03T03:28:03,42.805,6.029,-0.003,0.045,-0.043,105.0,116.0,102.0,13.4,1505.3,324.6,-0.7,1.8,2470.413,13.33,0.045,356.2
2020-04-03T03:31:03,42.805,6.029,-0.008,0.048,-0.023,107.0,114.0,102.0,13.4,1505.3,326.2,-0.7,1.8,2470.409,13.33,0.048,350.5
2020-04-03T03:34:03,42.805,6.029,0.0,0.034,-0.06,104.0,113.0,103.0,13.4,1505.3,325.6,-0.7,1.8,2470.45,13.33,0.034,0.0
2020-04-03T03:37:03,42.805,6.029,-0.006,0.051,-0.022,107.0,115.0,101.0,13.4,1505.3,323.9,-0.7,1.8,2470.455,13.33,0.051,353.3
2020-04-03T03:40:03,42.805,6.029,-0.003,0.029,-0.014,105.0,113.0,103.0,13.4,1505.3,323.7,-0.7,1.8,2470.433,13.33,0.029,354.1
2020-04-03T03:43:03,42.805,6.029,0.014,0.021,-0.001,106.0,115.0,103.0,13.4,1505.3,328.2,-0.7,1.8,2470.425,13.33,0.025,33.7
2020-04-03T03:46:03,42.805,6.029,-0.02,0.044,-0.065,106.0,115.0,102.0,13.4,1505.3,326.7,-0.7,1.8,2470.435,13.33,0.048,335.6
2020-04-03T03:49:03,42.805,6.029,0.002,0.038,-0.007,106.0,116.0,103.0,13.4,1505.3,327.4,-0.7,1.8,2470.471,13.33,0.038,3.0
2020-04-03T03:52:03,42.805,6.029,0.001,0.022,-0.038,106.0,115.0,102.0,13.4,1505.3,325.2,-0.7,1.9,2470.429,13.33,0.022,2.6
2020-04-03T03:55:03,42.805,6.029,0.008,0.024,-0.031,104.0,113.0,103.0,13.4,1505.3,328.7,-0.7,1.8,2470.433,13.33,0.025,18.4
2020-04-03T03:58:03,42.805,6.029,0.005,0.058,-0.028,105.0,115.0,103.0,13.4,1505.3,326.8,-0.7,1.8,2470.42,13.33,0.058,4.9
2020-04-03T04:04:03,42.805,6.029,-0.035,0.032,-0.031,106.0,115.0,102.0,13.3,1505.3,326.3,-0.8,1.8,2470.45,13.31,0.047,312.4
2020-04-03T04:07:03,42.805,6.029,-0.028,0.03,-0.028,106.0,115.0,102.0,13.4,1505.3,326.5,-0.8,1.8,2470.441,13.32,0.041,317.0
2020-04-03T04:10:03,42.805,6.029,-0.025,0.033,0.008,106.0,115.0,103.0,13.4,1505.3,323.5,-0.7,1.9,2470.446,13.32,0.041,322.8
2020-04-03T04:13:03,42.805,6.029,-0.016,0.043,-0.02,106.0,116.0,103.0,13.4,1505.3,326.4,-0.7,1.8,2470.453,13.32,0.045,339.6
2020-04-03T04:16:03,42.805,6.029,-0.012,0.012,-0.006,107.0,113.0,103.0,13.3,1505.3,327.1,-0.7,1.8,2470.423,13.33,0.016,315.0
2020-04-03T04:19:03,42.805,6.029,0.024,0.038,-0.032,106.0,115.0,104.0,13.4,1505.3,326.6,-0.7,1.8,2470.42,13.33,0.044,32.3
2020-04-03T04:22:03,42.805,6.029,-0.005,0.04,-0.031,107.0,115.0,104.0,13.4,1505.3,324.1,-0.7,1.8,2470.424,13.33,0.04,352.9
2020-04-03T04:25:03,42.805,6.029,0.003,0.036,0.006,107.0,113.0,102.0,13.4,1505.3,323.8,-0.7,1.9,2470.457,13.33,0.036,4.8
2020-04-03T04:28:03,42.805,6.029,-0.003,0.036,-0.011,105.0,115.0,103.0,13.4,1505.3,328.5,-0.7,1.8,2470.421,13.33,0.036,355.2
2020-04-03T04:31:03,42.805,6.029,-0.01,0.045,-0.009,105.0,115.0,103.0,13.3,1505.3,325.1,-0.7,1.8,2470.454,13.33,0.046,347.5
2020-04-03T04:34:03,42.805,6.029,-0.011,0.03,-0.04,106.0,115.0,102.0,13.4,1505.3,323.7,-0.7,1.8,2470.397,13.33,0.031,339.9
2020-04-03T04:37:03,42.805,6.029,-0.021,0.045,-0.04,106.0,114.0,102.0,13.3,1505.3,326.9,-0.7,1.8,2470.457,13.33,0.049,335.0
2020-04-03T04:40:03,42.805,6.029,-0.005,0.041,-0.038,105.0,115.0,104.0,13.3,1505.3,323.5,-0.7,1.8,2470.437,13.33,0.041,353.0
2020-04-03T04:43:03,42.805,6.029,0.014,0.049,-0.012,107.0,115.0,103.0,13.3,1505.3,324.7,-0.7,1.8,2470.4,13.33,0.05,15.9
2020-04-03T04:46:03,42.805,6.029,0.021,0.045,-0.01,107.0,114.0,103.0,13.4,1505.3,327.8,-0.7,1.9,2470.412,13.33,0.049,25.0
2020-04-03T04:49:03,42.805,6.029,-0.003,0.041,0.009,107.0,113.0,103.0,13.3,1505.3,324.3,-0.7,1.8,2470.399,13.33,0.041,355.8
2020-04-03T04:52:03,42.805,6.029,-0.002,0.051,-0.009,107.0,114.0,103.0,13.3,1505.3,325.7,-0.7,1.9,2470.406,13.33,0.051,357.8
2020-04-03T04:55:03,42.805,6.029,0.006,0.021,-0.015,106.0,114.0,103.0,13.4,1505.3,327.7,-0.7,1.9,2470.414,13.33,0.021,15.9
2020-04-03T04:58:03,42.805,6.029,-0.035,0.034,-0.025,106.0,115.0,103.0,13.3,1505.3,324.4,-0.7,1.8,2470.395,13.33,0.048,314.2
2020-04-03T05:04:03,42.805,6.029,0.006,0.037,0.025,106.0,114.0,103.0,13.4,1505.3,324.5,-0.7,1.8,2470.454,13.31,0.037,9.2
2020-04-03T05:07:03,42.805,6.029,0.01,0.026,-0.015,106.0,115.0,103.0,13.4,1505.3,325.3,-0.7,1.8,2470.435,13.32,0.027,21.0
2020-04-03T05:10:03,42.805,6.029,-0.007,0.023,-0.024,108.0,113.0,102.0,13.4,1505.3,324.7,-0.7,1.8,2470.46,13.32,0.024,343.1
2020-04-03T05:13:03,42.805,6.029,-0.007,0.026,-0.019,109.0,113.0,103.0,13.4,1505.3,327.0,-0.7,1.8,2470.469,13.32,0.026,344.9
2020-04-03T05:16:03,42.805,6.029,0.015,0.036,-0.015,106.0,113.0,103.0,13.4,1505.3,327.9,-0.7,1.8,2470.431,13.33,0.039,22.6
2020-04-03T05:19:03,42.805,6.029,0.001,0.038,-0.03,106.0,114.0,102.0,13.4,1505.3,324.0,-0.7,1.9,2470.441,13.33,0.038,1.5
2020-04-03T05:22:03,42.805,6.029,-0.018,0.061,-0.025,106.0,114.0,103.0,13.3,1505.3,324.5,-0.7,1.8,2470.443,13.33,0.063,343.6
2020-04-03T05:25:03,42.805,6.029,-0.001,0.031,-0.044,105.0,113.0,102.0,13.4,1505.3,326.2,-0.7,1.8,2470.418,13.33,0.031,358.2
2020-04-03T05:28:03,42.805,6.029,0.014,0.043,-0.007,105.0,111.0,103.0,13.4,1505.3,324.0,-0.7,1.8,2470.416,13.33,0.045,18.0
2020-04-03T05:31:03,42.805,6.029,-0.023,0.046,-0.044,106.0,113.0,103.0,13.4,1505.3,323.0,-0.7,1.8,2470.423,13.33,0.051,333.4
2020-04-03T05:34:03,42.805,6.029,0.005,0.044,-0.01,105.0,113.0,103.0,13.4,1505.3,328.0,-0.7,1.8,2470.425,13.33,0.044,6.5
2020-04-03T05:37:03,42.805,6.029,0.005,0.028,-0.001,107.0,114.0,103.0,13.3,1505.3,325.4,-0.7,1.9,2470.399,13.33,0.028,10.1
2020-04-03T05:40:03,42.805,6.029,-0.003,0.022,-0.036,105.0,114.0,103.0,13.4,1505.3,325.0,-0.7,1.8,2470.403,13.33,0.022,352.2
2020-04-03T05:43:03,42.805,6.029,0.004,0.029,-0.015,105.0,114.0,103.0,13.4,1505.3,325.5,-0.7,1.8,2470.411,13.33,0.029,7.8
2020-04-03T05:46:03,42.805,6.029,0.001,0.042,-0.004,106.0,115.0,103.0,13.4,1505.3,323.8,-0.7,1.8,2470.462,13.33,0.042,1.4
2020-04-03T05:49:03,42.805,6.029,0.0,0.032,0.006,105.0,114.0,102.0,13.4,1505.3,324.1,-0.7,1.8,2470.407,13.33,0.032,0.0
2020-04-03T05:52:03,42.805,6.029,-0.021,0.038,-0.031,107.0,114.0,103.0,13.3,1505.3,326.4,-0.7,1.8,2470.419,13.33,0.043,331.1
2020-04-03T05:55:03,42.805,6.029,0.004,0.018,-0.057,106.0,114.0,104.0,13.4,1505.3,326.1,-0.7,1.8,2470.42,13.33,0.018,12.5
2020-04-03T05:58:03,42.805,6.029,-0.007,0.032,-0.032,106.0,114.0,103.0,13.3,1505.3,327.5,-0.7,1.9,2470.417,13.33,0.032,347.7
2020-04-03T06:04:03,42.805,6.029,-0.019,0.043,-0.012,105.0,114.0,102.0,13.4,1505.3,323.9,-0.7,1.8,2470.404,13.31,0.047,336.2
2020-04-03T06:07:02,42.805,6.029,-0.006,0.038,-0.011,107.0,114.0,103.0,13.4,1505.3,323.4,-0.8,1.8,2470.41,13.32,0.038,351.0
2020-04-03T06:10:03,42.805,6.029,-0.02,0.018,-0.037,107.0,114.0,103.0,13.4,1505.3,328.2,-0.7,1.8,2470.447,13.32,0.026,312.0
2020-04-03T06:13:03,42.805,6.029,-0.001,0.037,-0.033,106.0,115.0,102.0,13.4,1505.3,325.5,-0.7,1.8,2470.425,13.33,0.037,358.5
2020-04-03T06:16:03,42.805,6.029,0.006,0.038,-0.013,106.0,113.0,103.0,13.4,1505.3,326.5,-0.7,1.8,2470.422,13.33,0.038,9.0
2020-04-03T06:19:03,42.805,6.029,-0.002,0.021,-0.021,107.0,114.0,103.0,13.3,1505.3,323.9,-0.7,1.8,2470.4,13.33,0.021,354.6
2020-04-03T06:22:03,42.805,6.029,-0.015,0.026,-0.024,107.0,114.0,102.0,13.4,1505.3,324.5,-0.7,1.8,2470.421,13.33,0.03,330.0
2020-04-03T06:25:03,42.805,6.029,0.016,0.032,-0.026,107.0,115.0,103.0,13.4,1505.3,324.9,-0.7,1.8,2470.423,13.33,0.035,26.6
2020-04-03T06:28:03,42.805,6.029,-0.02,0.047,-0.003,106.0,114.0,103.0,13.4,1505.3,324.5,-0.7,1.8,2470.346,13.33,0.051,337.0
2020-04-03T06:31:03,42.805,6.029,0.008,0.039,-0.022,107.0,114.0,103.0,13.4,1505.3,326.4,-0.7,1.8,2470.421,13.33,0.039,11.6
2020-04-03T06:34:03,42.805,6.029,0.007,0.044,-0.012,107.0,115.0,103.0,13.4,1505.3,325.6,-0.7,1.8,2470.39,13.33,0.044,9.0
2020-04-03T06:37:03,42.805,6.029,0.015,0.023,-0.033,106.0,114.0,102.0,13.4,1505.3,325.6,-0.7,1.8,2470.382,13.33,0.027,33.1
2020-04-03T06:40:03,42.805,6.029,0.028,0.025,0.005,106.0,114.0,103.0,13.3,1505.3,325.6,-0.7,1.8,2470.413,13.33,0.037,48.2
2020-04-03T06:43:03,42.805,6.029,-0.018,0.043,-0.029,106.0,114.0,104.0,13.3,1505.3,327.9,-0.7,1.8,2470.394,13.33,0.046,337.3
2020-04-03T06:46:03,42.805,6.029,-0.019,0.049,-0.027,105.0,114.0,103.0,13.4,1505.3,326.1,-0.7,1.8,2470.396,13.33,0.052,338.8
2020-04-03T06:49:03,42.805,6.029,0.014,0.029,-0.013,106.0,114.0,103.0,13.3,1505.3,328.1,-0.7,1.8,2470.408,13.33,0.032,25.8
2020-04-03T06:52:03,42.805,6.029,-0.01,0.009,-0.034,105.0,114.0,104.0,13.4,1505.3,323.8,-0.7,1.9,2470.368,13.33,0.013,312.0
2020-04-03T06:55:03,42.805,6.029,0.002,0.033,0.0,108.0,114.0,102.0,13.4,1505.3,327.6,-0.7,1.8,2470.363,13.33,0.033,3.5
2020-04-03T06:58:03,42.805,6.029,0.012,0.036,-0.01,107.0,114.0,103.0,13.4,1505.3,324.0,-0.7,1.9,2470.382,13.33,0.037,18.4
2020-04-03T07:04:03,42.805,6.029,-0.019,0.044,-0.016,107.0,115.0,103.0,13.4,1505.3,323.3,-0.7,1.8,2470.443,13.31,0.047,336.6
2020-04-03T07:07:03,42.805,6.029,-0.004,0.028,-0.056,107.0,114.0,102.0,13.4,1505.3,327.1,-0.7,1.8,2470.401,13.32,0.028,351.9
2020-04-03T07:10:03,42.805,6.029,-0.009,0.036,-0.024,107.0,114.0,102.0,13.4,1505.3,323.9,-0.7,1.8,2470.358,13.32,0.037,346.0
2020-04-03T07:13:03,42.805,6.029,0.008,0.039,-0.02,107.0,113.0,103.0,13.4,1505.3,328.6,-0.7,1.8,2470.365,13.33,0.039,11.6
2020-04-03T07:16:03,42.805,6.029,-0.011,0.034,-0.025,106.0,115.0,104.0,13.4,1505.3,325.6,-0.6,1.8,2470.407,13.33,0.035,342.1
2020-04-03T07:19:03,42.805,6.029,-0.01,0.034,-0.025,107.0,114.0,104.0,13.4,1505.3,323.3,-0.7,1.8,2470.395,13.33,0.035,343.6
2020-04-03T07:22:03,42.805,6.029,-0.017,0.046,0.005,105.0,114.0,102.0,13.3,1505.3,324.7,-0.7,1.8,2470.38,13.33,0.049,339.7
2020-04-03T07:25:03,42.805,6.029,0.017,0.039,-0.024,107.0,114.0,102.0,13.4,1505.3,326.0,-0.7,1.9,2470.366,13.33,0.042,23.5
2020-04-03T07:28:03,42.805,6.029,0.007,0.039,-0.019,106.0,113.0,103.0,13.3,1505.3,327.4,-0.7,1.8,2470.358,13.33,0.039,10.2
2020-04-03T07:31:03,42.805,6.029,0.012,0.058,-0.016,104.0,116.0,103.0,13.3,1505.3,326.3,-0.7,1.8,2470.381,13.33,0.059,11.7
2020-04-03T07:34:03,42.805,6.029,-0.01,0.047,-0.043,106.0,114.0,101.0,13.4,1505.3,324.1,-0.7,1.8,2470.401,13.33,0.048,348.0
2020-04-03T07:37:03,42.805,6.029,0.007,0.048,-0.006,107.0,115.0,103.0,13.3,1505.3,325.1,-0.7,1.8,2470.389,13.33,0.048,8.3
2020-04-03T07:40:03,42.805,6.029,-0.012,0.017,-0.032,107.0,112.0,103.0,13.3,1505.3,327.6,-0.7,1.8,2470.372,13.33,0.02,324.8
2020-04-03T07:43:03,42.805,6.029,-0.017,0.028,-0.039,104.0,113.0,102.0,13.4,1505.3,323.4,-0.7,1.8,2470.354,13.33,0.032,328.7
2020-04-03T07:46:03,42.805,6.029,0.019,0.047,-0.01,105.0,114.0,102.0,13.3,1505.3,325.9,-0.7,1.8,2470.344,13.33,0.05,22.0
2020-04-03T07:49:03,42.805,6.029,0.006,0.039,-0.008,105.0,114.0,103.0,13.4,1505.3,324.2,-0.7,1.9,2470.351,13.33,0.039,8.7
2020-04-03T07:52:03,42.805,6.029,0.002,0.034,0.0,105.0,114.0,103.0,13.4,1505.3,324.8,-0.7,1.8,2470.356,13.33,0.034,3.4
2020-04-03T07:55:03,42.805,6.029,0.001,0.045,-0.027,107.0,114.0,103.0,13.4,1505.3,326.5,-0.7,1.9,2470.337,13.33,0.045,1.3
2020-04-03T07:58:03,42.805,6.029,0.014,0.03,-0.055,105.0,115.0,101.0,13.4,1505.3,323.1,-0.7,1.8,2470.354,13.33,0.033,25.0
2020-04-03T08:04:03,42.805,6.029,0.011,0.041,-0.045,106.0,115.0,102.0,13.4,1505.3,326.7,-0.8,1.8,2470.409,13.31,0.042,15.0
2020-04-03T08:07:03,42.805,6.029,0.013,0.03,-0.026,105.0,114.0,101.0,13.3,1505.3,324.5,-0.7,1.8,2470.348,13.32,0.032,23.4
2020-04-03T08:10:03,42.805,6.029,0.008,0.026,-0.046,104.0,114.0,103.0,13.4,1505.3,323.0,-0.7,1.8,2470.36,13.32,0.027,17.1
2020-04-03T08:13:03,42.805,6.029,-0.002,0.027,-0.031,104.0,113.0,102.0,13.4,1505.3,325.2,-0.7,1.9,2470.369,13.33,0.027,355.8
2020-04-03T08:16:03,42.805,6.029,-0.003,0.032,-0.044,106.0,115.0,102.0,13.3,1505.3,325.9,-0.7,1.8,2470.348,13.33,0.032,354.6
2020-04-03T08:19:03,42.805,6.029,-0.01,0.05,0.0,105.0,116.0,103.0,13.3,1505.3,325.8,-0.7,1.9,2470.389,13.33,0.05,348.7
2020-04-03T08:22:03,42.805,6.029,0.007,0.038,0.006,106.0,113.0,102.0,13.4,1505.3,326.7,-0.7,1.8,2470.358,13.33,0.038,10.4
2020-04-03T08:25:03,42.805,6.029,-0.013,0.045,-0.057,105.0,114.0,102.0,13.4,1505.3,328.3,-0.7,1.8,2470.297,13.33,0.046,343.9
2020-04-03T08:28:03,42.805,6.029,-0.007,0.055,-0.026,103.0,114.0,102.0,13.4,1505.3,325.9,-0.7,1.8,2470.385,13.33,0.055,352.7
2020-04-03T08:31:03,42.805,6.029,0.0,0.041,-0.048,105.0,115.0,101.0,13.4,1505.3,327.1,-0.7,1.9,2470.321,13.33,0.041,0.0
2020-04-03T08:34:03,42.805,6.029,0.004,0.042,-0.007,105.0,115.0,101.0,13.4,1505.3,325.4,-0.7,1.9,2470.34,13.33,0.042,5.4
2020-04-03T08:37:03,42.805,6.029,-0.001,0.036,-0.039,105.0,114.0,101.0,13.3,1505.3,326.2,-0.7,1.8,2470.321,13.33,0.036,358.4
2020-04-03T08:40:03,42.805,6.029,-0.01,0.039,-0.011,104.0,114.0,103.0,13.4,1505.3,327.8,-0.7,1.8,2470.319,13.33,0.04,345.6
2020-04-03T08:43:03,42.805,6.029,0.004,0.054,-0.02,105.0,114.0,101.0,13.4,1505.3,323.7,-0.7,1.8,2470.334,13.33,0.054,4.2
2020-04-03T08:46:03,42.805,6.029,-0.001,0.048,0.008,106.0,114.0,101.0,13.4,1505.3,326.5,-0.7,1.8,2470.319,13.33,0.048,358.8
2020-04-03T08:49:03,42.805,6.029,-0.003,0.057,-0.009,105.0,114.0,102.0,13.4,1505.3,326.5,-0.7,1.9,2470.317,13.33,0.057,357.0
2020-04-03T08:52:03,42.805,6.029,-0.027,0.047,0.015,105.0,113.0,101.0,13.4,1505.3,324.4,-0.7,1.8,2470.301,13.33,0.054,330.1
2020-04-03T08:55:03,42.805,6.029,-0.004,0.063,-0.041,106.0,116.0,101.0,13.3,1505.3,324.4,-0.7,1.8,2470.302,13.33,0.063,356.4
2020-04-03T08:58:03,42.805,6.029,0.003,0.022,-0.045,104.0,114.0,102.0,13.3,1505.3,325.3,-0.7,1.8,2470.333,13.33,0.022,7.8
2020-04-03T09:04:03,42.805,6.029,-0.004,0.026,-0.039,106.0,112.0,102.0,13.4,1505.3,326.4,-0.7,1.8,2470.343,13.31,0.026,351.3
2020-04-03T09:07:03,42.805,6.029,0.003,0.034,-0.017,105.0,113.0,102.0,13.4,1505.3,324.4,-0.8,1.8,2470.355,13.32,0.034,5.0
2020-04-03T09:10:03,42.805,6.029,0.025,0.03,-0.015,106.0,114.0,101.0,13.4,1505.3,328.8,-0.7,1.9,2470.32,13.32,0.039,39.8
2020-04-03T09:13:03,42.805,6.029,0.003,0.041,-0.026,104.0,114.0,102.0,13.4,1505.3,327.4,-0.7,1.8,2470.36,13.33,0.041,4.2
2020-04-03T09:16:03,42.805,6.029,0.002,0.067,-0.021,105.0,114.0,102.0,13.4,1505.3,326.3,-0.7,1.9,2470.333,13.33,0.067,1.7
2020-04-03T09:19:03,42.805,6.029,0.0,0.068,-0.009,106.0,114.0,101.0,13.3,1505.3,325.1,-0.7,1.8,2470.324,13.33,0.067,0.0
2020-04-03T09:22:03,42.805,6.029,-0.002,0.047,-0.021,105.0,115.0,102.0,13.4,1505.3,326.9,-0.7,1.8,2470.308,13.33,0.047,357.6
2020-04-03T09:25:03,42.805,6.029,-0.015,0.048,-0.016,106.0,113.0,103.0,13.4,1505.3,322.9,-0.7,1.8,2470.318,13.33,0.05,342.6
2020-04-03T09:28:03,42.805,6.029,-0.021,0.034,-0.046,104.0,115.0,102.0,13.4,1505.3,325.4,-0.7,1.8,2470.323,13.33,0.039,328.3
2020-04-03T09:31:03,42.805,6.029,0.027,0.067,-0.015,105.0,113.0,102.0,13.3,1505.3,325.2,-0.7,1.8,2470.32,13.33,0.072,21.9
2020-04-03T09:34:03,42.805,6.029,-0.013,0.033,-0.008,105.0,116.0,101.0,13.4,1505.3,325.0,-0.7,1.8,2470.316,13.33,0.035,338.5
2020-04-03T09:37:03,42.805,6.029,0.002,0.02,-0.059,103.0,117.0,102.0,13.4,1505.3,323.0,-0.7,1.8,2470.329,13.33,0.02,5.7
2020-04-03T09:40:03,42.805,6.029,0.002,0.046,-0.027,105.0,118.0,101.0,13.4,1505.3,328.0,-0.7,1.8,2470.349,13.33,0.046,2.5
2020-04-03T09:43:03,42.805,6.029,0.0,0.038,-0.033,103.0,118.0,102.0,13.4,1505.3,326.4,-0.7,1.8,2470.324,13.33,0.038,0.0
2020-04-03T09:46:03,42.805,6.029,-0.001,0.056,0.0,105.0,117.0,101.0,13.4,1505.3,324.3,-0.7,1.8,2470.309,13.33,0.056,359.0
2020-04-03T09:49:03,42.805,6.029,0.0,0.067,0.0,105.0,116.0,101.0,13.4,1505.3,328.0,-0.7,1.8,2470.338,13.33,0.066,0.0
2020-04-03T09:52:03,42.805,6.029,0.006,0.037,-0.032,104.0,117.0,101.0,13.3,1505.3,326.3,-0.7,1.8,2470.313,13.33,0.037,9.2
2020-04-03T09:55:03,42.805,6.029,-0.012,0.053,-0.035,106.0,115.0,102.0,13.4,1505.3,323.4,-0.7,1.9,2470.292,13.33,0.054,347.2
2020-04-03T09:58:03,42.805,6.029,-0.015,0.041,-0.028,105.0,114.0,102.0,13.4,1505.3,327.8,-0.7,1.9,2470.287,13.33,0.043,339.9